Theta_e
347 349 345 344 341 345 349 348 347 345 346 343 347 348 346 347 348 348 349 347 350 344 344 347 344 343 343 344 343 342 343 343 342 342 342 342 343 341
345 347 346 347 343 347 350 347 349 347 346 345 348 348 347 345 345 339 347 348 347 346 346 346 343 341 341 341 344 344 343 343 343 343 342 341 341 342
347 345 346 349 344 345 349 347 348 348 346 347 345 346 345 347 346 345 347 346 348 348 346 347 349 349 346 342 342 343 342 343 344 343 343 343 342 341
347 348 347 342 343 346 345 342 343 345 344 347 347 347 345 344 344 345 347 350 349 350 350 349 348 348 348 346 343 341 343 343 343 343 343 343 343 343
344 345 344 343 347 346 347 347 345 345 344 346 345 343 342 345 349 349 347 346 348 342 346 348 347 348 347 347 345 341 335 338 340 342 343 343 343 343
345 345 345 349 347 347 348 348 346 345 345 343 344 345 345 343 348 348 345 345 345 345 336 341 347 346 343 346 344 343 341 339 338 338 342 344 344 343
345 344 341 343 347 347 349 349 349 345 347 349 348 346 343 341 340 342 344 341 342 339 341 343 344 345 345 345 344 345 346 344 343 342 340 343 344 344
344 342 344 341 346 350 349 347 348 351 351 351 349 348 346 345 344 343 344 341 338 339 344 345 345 346 345 340 343 346 346 346 344 344 338 340 341 342
348 347 346 347 346 345 349 350 350 349 348 348 346 347 347 346 346 343 340 339 338 338 342 344 344 345 345 344 345 343 344 343 344 343 338 335 337 340
349 349 349 347 347 348 353 352 350 347 340 346 348 349 347 345 344 341 339 336 334 334 337 340 340 338 329 330 337 343 345 344 348 345 341 341 339 336
350 349 349 349 348 349 349 347 338 338 344 347 349 347 345 343 341 341 337 332 332 331 329 331 332 335 335 335 334 336 340 345 345 343 343 341 337 336
349 348 348 347 345 343 341 341 343 346 348 346 346 344 342 342 341 336 334 335 333 332 334 335 335 335 338 339 339 338 338 339 341 341 340 339 337 338
346 345 343 341 345 347 347 347 347 347 346 344 340 336 336 336 332 335 334 334 332 331 330 330 329 329 332 334 335 337 338 337 336 335 337 338 336 336
347 342 336 340 349 351 348 345 347 343 344 340 334 327 325 331 334 333 332 332 331 331 330 330 330 329 329 328 329 332 334 334 335 334 335 336 335 336
348 345 341 340 339 342 343 345 342 338 340 332 324 325 328 330 331 331 332 331 330 330 330 330 329 328 328 328 328 328 333 334 333 332 335 334 334 334
349 348 344 342 342 344 343 343 337 338 332 324 325 327 330 330 331 330 329 330 331 332 331 330 328 328 329 328 327 327 330 331 331 331 331 331 331 332
340 339 341 341 340 341 338 333 334 330 324 328 326 329 328 329 330 330 331 333 332 331 330 329 328 328 328 328 325 328 329 331 330 329 330 330 330 331
335 336 337 335 336 338 334 334 331 330 333 334 329 327 329 330 330 330 332 331 331 331 330 329 328 329 329 328 327 327 329 330 328 328 329 329 330 330
334 333 334 334 334 336 334 333 333 332 334 335 333 327 330 328 331 330 331 329 329 331 330 329 329 329 327 327 328 328 328 328 329 328 328 329 329 330
336 335 336 335 338 333 334 333 334 333 334 334 332 327 330 330 330 329 329 329 329 329 329 329 328 328 325 325 327 327 328 328 328 327 327 327 327 328
339 340 340 339 333 334 334 334 334 334 333 332 330 328 330 329 329 330 329 329 328 327 328 328 328 327 326 325 326 326 327 327 327 327 327 326 326 326
339 340 341 337 334 333 333 332 332 332 332 332 332 326 330 329 329 329 329 328 328 327 326 326 327 327 326 326 326 327 326 327 327 326 325 326 326 326
338 337 339 337 335 332 331 331 331 331 332 331 327 327 329 329 330 329 328 328 327 326 325 325 326 326 326 325 325 325 326 326 326 327 324 323 323 323
Wind_Speed
10 8 11 7 12 10 6 10 4 8 9 8 9 5 4 8 12 10 9 9 12 18 15 15 15 15 14 15 16 15 15 14 14 14 13 13 12 11
13 11 12 13 9 10 6 4 5 5 5 10 9 12 15 16 17 11 13 12 12 18 12 9 10 14 17 16 17 18 17 17 17 16 16 15 14 13
17 17 16 16 13 13 12 11 9 8 9 11 13 14 17 14 11 12 14 16 14 14 16 18 17 18 15 15 18 19 19 18 19 19 18 17 16 15
17 16 17 14 15 13 13 12 14 14 12 14 16 17 16 13 14 16 17 15 20 18 17 20 20 19 20 17 18 20 21 19 19 20 20 20 18 17
21 19 18 15 14 13 12 13 14 14 16 20 23 21 19 15 16 18 20 19 22 24 23 21 20 20 21 20 21 22 21 21 20 21 22 22 21 20
20 20 20 17 16 14 17 15 17 16 16 19 19 20 20 19 22 24 25 25 25 25 26 28 25 26 26 23 22 21 21 20 19 22 23 23 23 21
20 18 20 21 17 18 18 19 19 21 21 22 25 25 25 25 25 27 29 30 32 29 30 32 31 27 33 30 33 27 25 20 17 19 24 24 24 23
25 23 19 19 19 20 20 19 21 23 25 27 29 28 27 27 27 28 30 22 26 23 20 19 17 19 21 18 27 27 25 22 21 18 18 24 24 23
20 20 18 19 19 17 19 22 23 23 25 29 31 29 27 26 25 25 23 26 27 25 23 27 21 20 22 26 25 24 26 25 24 21 17 16 20 23
24 23 21 21 20 21 23 27 29 31 34 28 28 27 28 27 27 25 26 27 28 26 22 30 22 20 18 20 22 25 23 22 28 28 17 18 21 21
28 29 29 30 29 28 30 33 33 32 30 31 31 31 27 24 26 26 27 21 22 20 11 16 16 15 18 21 22 21 20 21 24 22 22 22 21 21
30 30 29 30 30 29 30 29 28 26 29 28 27 27 26 27 26 24 17 16 16 18 8 9 12 12 12 15 20 24 24 23 23 23 23 23 21 20
27 25 22 20 19 21 24 25 27 27 28 27 29 27 26 26 22 18 14 13 17 18 17 17 20 20 19 17 19 15 15 17 17 20 23 22 20 20
32 26 23 22 18 20 22 25 26 27 30 29 28 25 20 16 18 20 16 15 16 21 17 19 21 18 20 23 22 17 20 22 21 18 15 15 16 19
35 31 27 23 21 18 23 26 24 26 28 28 22 20 16 17 17 17 17 20 19 17 19 16 14 16 18 18 19 18 14 13 13 11 13 13 16 17
34 34 30 25 20 20 23 25 27 25 26 22 18 16 16 14 15 15 14 14 18 15 16 13 14 16 16 16 16 16 13 9 7 12 14 15 15 20
27 17 23 23 19 13 17 20 22 22 19 15 14 14 14 12 12 14 12 14 15 12 12 13 14 15 14 12 9 10 13 11 10 9 13 15 16 17
24 31 33 28 20 18 18 19 17 16 15 13 13 14 13 12 12 11 12 14 14 13 13 12 13 13 10 8 8 8 9 5 7 10 11 15 17 17
18 21 29 32 23 21 19 18 18 18 15 16 15 15 13 12 13 11 11 12 14 14 14 13 12 11 9 9 6 6 10 13 12 12 12 13 15 19
29 30 31 31 27 21 19 18 21 22 19 18 17 17 16 14 14 13 12 12 14 15 16 13 11 9 9 7 5 5 5 7 10 11 12 13 13 16
26 27 25 26 25 22 22 21 21 21 22 21 19 17 16 15 15 13 13 14 14 15 16 13 8 8 9 9 7 5 5 6 8 12 14 14 16 20
25 28 28 27 27 24 24 25 23 25 25 20 19 18 16 16 15 16 15 16 15 15 14 13 8 5 7 10 11 9 8 9 8 10 15 16 15 18
27 29 29 30 30 29 26 26 26 26 24 19 16 13 12 17 15 15 16 16 17 17 15 14 13 10 10 10 12 12 10 6 5 7 12 17 17 20
Wind_Direction
268 279 296 282 231 249 318 347 312 305 322 338 327 318 287 288 284 274 281 293 298 309 287 276 274 273 272 259 256 255 257 259 259 258 257 259 256 260
257 271 272 271 263 234 277 303 335 330 293 300 306 312 312 311 294 290 272 299 305 300 296 284 286 273 270 271 263 258 257 259 261 260 258 258 259 261
244 247 260 269 269 257 258 267 280 297 308 299 296 304 310 314 313 295 295 295 303 315 282 280 284 275 277 271 265 260 256 261 258 260 259 257 257 258
254 257 262 259 270 258 256 262 269 262 281 286 287 287 291 304 308 304 308 291 274 281 288 278 281 272 260 278 278 268 262 263 255 256 257 255 254 253
254 258 261 261 268 262 258 271 278 274 277 276 282 286 292 286 291 293 295 291 288 287 276 263 275 274 263 268 276 271 267 266 262 261 259 253 252 254
249 256 260 262 264 263 263 275 284 287 285 283 283 287 288 289 286 288 289 288 284 282 275 274 267 277 253 247 256 255 258 261 263 264 259 256 253 254
249 254 258 261 268 265 266 275 290 296 294 295 294 293 291 290 289 287 286 287 288 287 277 272 276 277 264 253 257 245 259 273 265 267 258 253 253 255
254 255 253 258 259 263 272 280 284 286 284 283 288 288 290 292 291 292 292 286 298 305 297 271 274 271 254 261 255 251 256 260 260 263 269 255 253 253
253 253 252 259 264 262 267 267 269 275 282 287 285 284 287 290 292 297 290 289 292 294 287 280 274 269 274 270 266 265 259 253 255 255 254 259 261 254
252 254 256 257 257 246 260 269 276 284 289 285 288 287 290 288 292 297 302 299 293 292 288 286 287 280 273 270 264 261 262 257 258 245 246 264 266 264
251 253 255 258 263 264 267 273 278 283 288 291 286 282 279 284 290 293 301 299 308 315 296 276 292 287 277 275 273 271 269 254 252 262 258 260 255 252
252 255 261 267 271 271 270 272 279 284 286 287 285 283 284 282 286 290 286 292 308 323 309 283 286 308 300 280 270 261 258 253 253 255 254 251 247 234
255 254 259 266 277 278 274 275 279 286 288 285 285 284 283 283 274 268 283 288 300 301 306 299 297 289 282 288 284 281 265 258 255 266 254 240 233 228
251 246 249 248 255 266 270 276 279 286 284 284 284 286 281 267 268 278 284 284 286 295 297 297 292 291 286 285 281 285 276 272 268 264 241 229 238 232
248 246 247 246 244 253 269 274 277 286 282 284 282 281 277 275 271 269 274 285 286 287 287 293 293 296 294 283 279 267 282 265 252 242 224 232 232 219
244 246 244 243 248 255 270 275 284 281 277 275 272 274 272 268 260 269 281 285 284 287 278 289 292 292 295 285 274 255 272 239 247 237 234 236 237 230
248 234 242 245 247 259 285 286 282 270 259 270 273 275 270 265 264 270 278 288 297 295 287 280 291 298 293 285 279 262 254 261 247 236 239 229 230 231
251 247 251 258 255 275 279 277 262 255 258 270 280 276 262 260 260 269 281 287 298 295 296 289 285 292 300 292 271 265 239 257 256 254 242 241 230 228
248 252 252 256 260 270 262 254 253 265 270 263 282 278 256 258 254 262 279 282 291 296 295 282 281 281 290 270 279 275 255 252 270 258 245 232 234 229
250 250 259 252 257 252 248 249 257 249 249 254 275 268 251 261 252 260 265 282 282 288 304 291 265 256 256 250 254 267 258 255 255 260 242 241 240 231
261 259 255 252 244 243 238 241 240 238 248 259 264 262 246 253 249 254 263 268 275 279 291 302 279 250 250 249 247 263 262 276 274 246 238 248 238 233
278 268 259 249 237 232 234 237 237 245 247 255 268 261 242 243 250 251 256 261 272 272 275 284 289 282 258 256 263 269 278 264 265 246 233 236 238 242
279 267 252 248 233 226 231 235 237 240 243 258 263 244 244 246 246 245 250 256 268 265 257 262 264 260 262 266 269 274 273 274 256 245 244 240 244 247